Big Rapids, MI

8:19 AM EST on February 10, 2016 (GMT -0500)
Roben-Hood

Weather History for KRQB - September, 2014

Change the Weather History Date:

Monday, September 1, 2014

  Actual Average Record
Temperature  
Mean Temperature 69 °F -  
Max Temperature 78 °F 76 °F 91 °F (1973)
Min Temperature 60 °F 52 °F 40 °F (1970)
Cooling Degree Days 4    
Growing Degree Days 19 (Base 50)    
Moisture  
Dew Point 67 °F    
Average Humidity 92    
Maximum Humidity 100    
Minimum Humidity 73    
Precipitation  
Precipitation 0.27 in - - ()
Sea Level Pressure  
Sea Level Pressure 29.79 in    
Wind  
Wind Speed 5 mph (SSW)    
Max Wind Speed 18 mph    
Max Gust Speed 28 mph    
Visibility 8 miles    
Events Rain    
Averages and records for this station are not official NWS values.
T = Trace of Precipitation, MM = Missing Value Source: NWS Daily Summary

Daily Weather History Graph

Daily Weather History Graph

Search for Another Location

Airport or City:

Trip Planner

Search our weather history database for the weather conditions in past years. The results will help you decide how hot, cold, wet, or windy it might be!

Date:

Astronomy

Sep. 01, 2014 Rise Set
Actual Time 7:05 AM EDT 8:17 PM EDT
Civil Twilight 6:35 AM EDT 8:47 PM EDT
Nautical Twilight 6:00 AM EDT 9:22 PM EDT
Astronomical Twilight 5:22 AM EDT 9:59 PM EDT
Moon 2:03 PM EDT (9/1) No Moon Set
Length of Visible Light 14h 11m
Length of Day
13h 11m
Waxing Crescent, 42% of the Moon is Illuminated
Sep 1
Waxing Crescent
Sep 2
First Quarter
Sep 8
Full
Sep 15
Last Quarter
Sep 24
New

Hourly Weather History & Observations

Time (EDT) Temp. Dew Point Humidity Pressure Visibility Wind Dir Wind Speed Gust Speed Precip Events Conditions
12:15 AM 62.6 °F 62.6 °F 100% 29.89 in 10.0 mi Calm Calm - N/A   Clear
12:34 AM 62.6 °F 62.4 °F 99% 29.90 in 10.0 mi East 6.9 mph - N/A   Clear
12:55 AM 61.2 °F 61.2 °F 100% 29.91 in 5.0 mi Calm Calm - N/A   Clear
1:15 AM 61.0 °F 61.0 °F 100% 29.90 in 1.2 mi SE 3.5 mph - N/A   Scattered Clouds
1:34 AM 61.0 °F 61.0 °F 100% 29.90 in 7.0 mi Calm Calm - N/A   Clear
2:15 AM 60.6 °F 60.6 °F 100% 29.90 in 5.0 mi East 5.8 mph - N/A   Clear
2:35 AM 60.1 °F 60.1 °F 100% 29.88 in 7.0 mi Calm Calm - N/A   Clear
2:55 AM 60.8 °F 60.8 °F 100% 29.88 in 7.0 mi Calm Calm - N/A   Clear
3:15 AM 60.1 °F 60.1 °F 100% 29.87 in 7.0 mi SE 4.6 mph - N/A   Clear
3:35 AM 61.5 °F 61.5 °F 100% 29.88 in 7.0 mi Calm Calm - N/A   Clear
3:55 AM 61.2 °F 61.2 °F 100% 29.88 in 10.0 mi Calm Calm - N/A   Mostly Cloudy
4:14 AM 60.1 °F 60.1 °F 100% 29.88 in 7.0 mi Calm Calm - N/A   Scattered Clouds
4:35 AM 60.8 °F 60.8 °F 100% 29.87 in 10.0 mi SE 4.6 mph - N/A   Scattered Clouds
4:55 AM 61.0 °F 61.0 °F 100% 29.87 in 7.0 mi Calm Calm - N/A   Mostly Cloudy
5:14 AM 60.8 °F 60.8 °F 100% 29.86 in 7.0 mi Calm Calm - N/A   Mostly Cloudy
5:35 AM 61.9 °F 61.9 °F 100% 29.85 in 7.0 mi SE 6.9 mph - N/A   Mostly Cloudy
5:55 AM 61.7 °F 61.7 °F 100% 29.84 in 5.0 mi ESE 6.9 mph - N/A   Mostly Cloudy
6:14 AM 62.1 °F 62.1 °F 100% 29.84 in 5.0 mi ESE 5.8 mph - N/A   Mostly Cloudy
6:35 AM 62.1 °F 62.1 °F 100% 29.84 in 5.0 mi ESE 4.6 mph - N/A   Scattered Clouds
6:55 AM 62.6 °F 62.6 °F 100% 29.84 in 3.0 mi ESE 4.6 mph - N/A   Mostly Cloudy
7:14 AM 63.7 °F 63.7 °F 100% 29.84 in 2.5 mi Calm Calm - N/A   Overcast
7:35 AM 64.8 °F 64.8 °F 100% 29.83 in 2.0 mi Calm Calm - N/A   Overcast
7:55 AM 66.2 °F 66.2 °F 100% 29.82 in 2.0 mi Calm Calm - N/A   Overcast
8:14 AM 67.5 °F 67.5 °F 100% 29.82 in 2.0 mi SSE 4.6 mph - N/A   Overcast
8:55 AM 69.3 °F 69.3 °F 100% 29.80 in 2.5 mi SE 8.1 mph - N/A   Overcast
9:15 AM 69.8 °F 69.8 °F 100% 29.79 in 2.0 mi SE 8.1 mph - N/A   Overcast
9:35 AM 71.1 °F 71.1 °F 100% 29.78 in 2.5 mi SSE 10.4 mph - N/A   Overcast
9:54 AM 72.3 °F 72.1 °F 99% 29.78 in 5.0 mi South 6.9 mph - N/A   Overcast
10:15 AM 73.6 °F 71.8 °F 94% 29.77 in 7.0 mi South 9.2 mph - N/A   Overcast
10:35 AM 75.2 °F 72.3 °F 91% 29.76 in 10.0 mi South 10.4 mph - N/A   Overcast
10:54 AM 75.0 °F 71.8 °F 90% 29.76 in 10.0 mi SSW 9.2 mph 18.4 mph N/A   Overcast
11:15 AM 75.6 °F 71.8 °F 88% 29.74 in 10.0 mi South 12.7 mph 20.7 mph N/A   Overcast
11:35 AM 75.2 °F 71.8 °F 89% 29.75 in 10.0 mi South 12.7 mph 21.9 mph N/A   Overcast
11:54 AM 75.6 °F 71.6 °F 87% 29.75 in 10.0 mi South 10.4 mph 18.4 mph N/A   Overcast
12:15 PM 77.0 °F 72.0 °F 84% 29.72 in 10.0 mi South 15.0 mph 23.0 mph N/A   Overcast
12:35 PM 75.7 °F 71.6 °F 87% 29.73 in 10.0 mi SSW 9.2 mph 18.4 mph N/A   Overcast
12:54 PM 73.8 °F 72.0 °F 94% 29.72 in 4.0 mi South 10.4 mph 17.3 mph 0.05 in Rain Heavy Rain
1:15 PM 72.9 °F 72.0 °F 97% 29.71 in 3.0 mi SW 10.4 mph 21.9 mph 0.14 in Rain Light Rain
1:35 PM 72.7 °F 71.8 °F 97% 29.72 in 4.0 mi WSW 15.0 mph 27.6 mph 0.21 in Rain Rain
1:55 PM 73.2 °F 71.6 °F 95% 29.72 in 7.0 mi WSW 12.7 mph 23.0 mph 0.22 in   Overcast
2:15 PM 75.2 °F 72.3 °F 91% 29.72 in 10.0 mi WSW 18.4 mph 26.5 mph N/A   Overcast
2:35 PM 76.3 °F 72.0 °F 86% 29.73 in 10.0 mi North - - N/A   Mostly Cloudy
2:55 PM 76.6 °F 70.2 °F 80% 29.72 in 10.0 mi West 12.7 mph 26.5 mph N/A   Mostly Cloudy
3:14 PM 75.7 °F 69.4 °F 81% 29.73 in 10.0 mi WNW 8.1 mph 24.2 mph N/A   Overcast
3:35 PM 76.6 °F 69.8 °F 79% 29.72 in 10.0 mi SW 16.1 mph 24.2 mph N/A   Mostly Cloudy
3:55 PM 78.1 °F 69.6 °F 75% 29.71 in 10.0 mi WSW 16.1 mph 19.6 mph N/A   Mostly Cloudy
4:14 PM 77.7 °F 69.1 °F 75% 29.70 in 10.0 mi SW 10.4 mph 19.6 mph N/A   Scattered Clouds
4:35 PM 78.1 °F 68.7 °F 73% 29.70 in 10.0 mi WSW 11.5 mph 18.4 mph N/A   Scattered Clouds
4:55 PM 77.2 °F 68.5 °F 75% 29.70 in 10.0 mi WSW 12.7 mph 19.6 mph N/A   Mostly Cloudy
5:14 PM 77.7 °F 68.4 °F 73% 29.70 in 10.0 mi SW 12.7 mph 18.4 mph N/A   Scattered Clouds
5:35 PM 77.2 °F 68.4 °F 74% 29.71 in 10.0 mi WSW 11.5 mph 16.1 mph N/A   Mostly Cloudy
6:15 PM 75.7 °F 67.5 °F 75% 29.72 in 10.0 mi WSW 12.7 mph 20.7 mph N/A   Overcast
6:35 PM 76.8 °F 68.4 °F 75% 29.72 in 10.0 mi WSW 15.0 mph 21.9 mph N/A   Mostly Cloudy
6:54 PM 75.6 °F 68.2 °F 78% 29.72 in 10.0 mi WSW 9.2 mph 17.3 mph N/A   Mostly Cloudy
7:15 PM 74.5 °F 68.9 °F 83% 29.72 in 10.0 mi SW 9.2 mph - N/A   Mostly Cloudy
7:35 PM 74.1 °F 68.7 °F 83% 29.73 in 10.0 mi WSW 6.9 mph - N/A   Mostly Cloudy
7:54 PM 73.6 °F 68.9 °F 85% 29.74 in 10.0 mi SW 6.9 mph - N/A   Mostly Cloudy
8:15 PM 73.4 °F 68.5 °F 85% 29.74 in 10.0 mi WSW 8.1 mph - N/A   Overcast
8:35 PM 72.9 °F 68.4 °F 86% 29.75 in 10.0 mi West 8.1 mph - N/A   Mostly Cloudy
8:54 PM 72.1 °F 68.2 °F 87% 29.76 in 10.0 mi West 6.9 mph - N/A   Overcast
9:15 PM 71.8 °F 67.6 °F 87% 29.77 in 10.0 mi West 6.9 mph - N/A   Overcast
9:34 PM 70.7 °F 67.3 °F 89% 29.78 in 10.0 mi West 5.8 mph - N/A   Mostly Cloudy
9:55 PM 69.8 °F 67.1 °F 91% 29.79 in 10.0 mi West 3.5 mph - N/A   Mostly Cloudy
10:15 PM 69.3 °F 67.5 °F 94% 29.79 in 10.0 mi Calm Calm - N/A Rain Light Rain
10:34 PM 68.4 °F 67.1 °F 96% 29.79 in 10.0 mi Calm Calm - N/A   Scattered Clouds
10:55 PM 67.5 °F 67.1 °F 99% 29.79 in 10.0 mi Calm Calm - N/A   Clear
11:15 PM 65.8 °F 65.8 °F 100% 29.79 in 1.8 mi Calm Calm - N/A   Mist
11:34 PM 65.5 °F 65.5 °F 100% 29.79 in 10.0 mi Calm Calm - N/A   Clear
11:55 PM 65.3 °F 65.3 °F 100% 29.79 in 7.0 mi Calm Calm - N/A   Clear